ZKYDZ NZNR-NZAA

Flight info

Callsign ZKYDZ
Flight time 0h 43m
Altitude 27000
Route BOVSA H372 MOOSE Y601 DODKU
Aircraft C510/L-SDFGRWY/LB1

Departure

Time 2026-04-14 08:51
Airport Hawke's Bay Airport (NZNR)

Arrival

Time 2026-04-14 09:34
Airport Auckland International Airport (NZAA)
Time Latitude Longitude Altitude Speed Heading
2026-04-14 08:43 -39.46823 176.87123 10 ft 0 kts 205°
2026-04-14 08:46 -39.46823 176.87122 10 ft 0 kts 207°
2026-04-14 08:46 -39.46823 176.87117 10 ft 0 kts 309°
2026-04-14 08:47 -39.46819 176.87114 10 ft 0 kts 330°
2026-04-14 08:47 -39.46803 176.87103 11 ft 2 kts 337°
2026-04-14 08:47 -39.46771 176.87087 11 ft 2 kts 335°
2026-04-14 08:47 -39.46732 176.87071 11 ft 5 kts 358°
2026-04-14 08:48 -39.46683 176.87053 11 ft 6 kts 330°
2026-04-14 08:48 -39.46668 176.86969 11 ft 12 kts 284°
2026-04-14 08:48 -39.46662 176.86845 11 ft 8 kts 276°
2026-04-14 08:48 -39.46671 176.86755 11 ft 8 kts 201°
2026-04-14 08:49 -39.46758 176.86737 11 ft 19 kts 187°
2026-04-14 08:49 -39.46943 176.86714 11 ft 27 kts 184°
2026-04-14 08:49 -39.47152 176.86691 11 ft 27 kts 184°
2026-04-14 08:49 -39.47314 176.86678 11 ft 28 kts 185°
2026-04-14 08:50 -39.47490 176.86662 11 ft 24 kts 185°
2026-04-14 08:50 -39.47645 176.86642 13 ft 19 kts 184°
2026-04-14 08:50 -39.47726 176.86616 15 ft 7 kts 209°
2026-04-14 08:50 -39.47725 176.86630 15 ft 0 kts
2026-04-14 08:51 -39.47700 176.86635 14 ft 23 kts
2026-04-14 08:51 -39.47262 176.86685 11 ft 101 kts
2026-04-14 08:51 -39.46368 176.86801 278 ft 144 kts
2026-04-14 08:51 -39.45404 176.86928 1116 ft 146 kts
2026-04-14 08:52 -39.44371 176.87021 1940 ft 158 kts
2026-04-14 08:52 -39.43275 176.87129 2703 ft 171 kts
2026-04-14 08:52 -39.42042 176.87260 3518 ft 182 kts
2026-04-14 08:52 -39.40796 176.87323 4414 ft 187 kts 351°
2026-04-14 08:53 -39.39573 176.86797 5336 ft 189 kts 342°
2026-04-14 08:53 -39.38343 176.86217 6208 ft 193 kts 342°
2026-04-14 08:53 -39.37093 176.85628 7057 ft 196 kts 342°
2026-04-14 08:53 -39.35805 176.85017 7898 ft 200 kts 342°
2026-04-14 08:54 -39.34519 176.84407 8704 ft 203 kts 342°
2026-04-14 08:54 -39.33190 176.83777 9504 ft 207 kts 342°
2026-04-14 08:54 -39.31826 176.83130 10293 ft 210 kts 342°
2026-04-14 08:54 -39.30462 176.82481 11051 ft 214 kts 342°
2026-04-14 08:55 -39.29066 176.81819 11799 ft 217 kts 342°
2026-04-14 08:55 -39.27654 176.81145 12531 ft 220 kts 342°
2026-04-14 08:55 -39.26214 176.80447 13262 ft 223 kts 342°
2026-04-14 08:55 -39.24770 176.79747 13977 ft 225 kts 343°
2026-04-14 08:56 -39.23310 176.79042 14679 ft 227 kts 343°
2026-04-14 08:56 -39.21819 176.78325 15378 ft 229 kts 344°
2026-04-14 08:56 -39.20335 176.77614 16060 ft 231 kts 345°
2026-04-14 08:56 -39.18830 176.76897 16735 ft 232 kts 345°
2026-04-14 08:57 -39.17320 176.76176 17396 ft 233 kts 345°
2026-04-14 08:57 -39.15812 176.75459 18041 ft 234 kts 346°
2026-04-14 08:57 -39.14285 176.74733 18681 ft 235 kts 346°
2026-04-14 08:57 -39.12756 176.74008 19306 ft 236 kts 347°
2026-04-14 08:58 -39.11219 176.73280 19922 ft 236 kts 347°
2026-04-14 08:58 -39.09681 176.72553 20527 ft 237 kts 347°
2026-04-14 08:58 -39.08136 176.71822 21120 ft 237 kts 347°
2026-04-14 08:58 -39.06599 176.71095 21694 ft 237 kts 348°
2026-04-14 08:59 -39.05054 176.70366 22265 ft 238 kts 348°
2026-04-14 08:59 -39.03532 176.69646 22815 ft 237 kts 348°
2026-04-14 08:59 -39.01971 176.68907 23339 ft 239 kts 348°
2026-04-14 08:59 -39.00418 176.68172 23836 ft 240 kts 348°
2026-04-14 09:00 -38.98849 176.67438 24330 ft 240 kts 350°
2026-04-14 09:00 -38.97257 176.66780 24819 ft 241 kts 351°
2026-04-14 09:00 -38.95661 176.66121 25300 ft 241 kts 351°
2026-04-14 09:00 -38.94060 176.65460 25774 ft 242 kts 351°
2026-04-14 09:01 -38.92472 176.64806 26226 ft 243 kts 351°
2026-04-14 09:01 -38.90842 176.64133 26634 ft 245 kts 351°
2026-04-14 09:01 -38.89202 176.63466 26700 ft 260 kts 351°
2026-04-14 09:01 -38.87420 176.62669 26700 ft 281 kts 343°
2026-04-14 09:02 -38.85614 176.61554 26715 ft 294 kts 342°
2026-04-14 09:02 -38.83751 176.60403 26706 ft 299 kts 342°
2026-04-14 09:02 -38.81857 176.59233 26705 ft 303 kts 342°
2026-04-14 09:02 -38.79957 176.58054 26703 ft 307 kts 342°
2026-04-14 09:03 -38.78032 176.56860 26702 ft 309 kts 342°
2026-04-14 09:03 -38.76085 176.55653 26702 ft 311 kts 342°
2026-04-14 09:03 -38.74139 176.54446 26701 ft 313 kts 342°
2026-04-14 09:03 -38.72156 176.53218 26701 ft 314 kts 342°
2026-04-14 09:04 -38.70180 176.51996 26701 ft 315 kts 341°
2026-04-14 09:04 -38.68201 176.50775 26701 ft 316 kts 341°
2026-04-14 09:04 -38.66235 176.49561 26700 ft 317 kts 341°
2026-04-14 09:04 -38.64238 176.48328 26700 ft 317 kts 341°
2026-04-14 09:05 -38.62265 176.47107 26700 ft 318 kts 341°
2026-04-14 09:05 -38.60254 176.45866 26700 ft 318 kts 341°
2026-04-14 09:05 -38.58270 176.44641 26699 ft 318 kts 341°
2026-04-14 09:05 -38.56273 176.43411 26699 ft 318 kts 341°
2026-04-14 09:06 -38.54282 176.42186 26699 ft 318 kts 341°
2026-04-14 09:06 -38.52279 176.40955 26699 ft 318 kts 341°
2026-04-14 09:06 -38.50272 176.39720 26699 ft 319 kts 341°
2026-04-14 09:06 -38.48299 176.38507 26699 ft 319 kts 341°
2026-04-14 09:07 -38.46300 176.37282 26699 ft 319 kts 341°
2026-04-14 09:07 -38.44298 176.36057 26699 ft 319 kts 341°
2026-04-14 09:07 -38.42287 176.34824 26698 ft 319 kts 342°
2026-04-14 09:07 -38.40298 176.33603 26692 ft 319 kts 342°
2026-04-14 09:08 -38.38303 176.32381 26692 ft 318 kts 342°
2026-04-14 09:08 -38.36333 176.31174 26692 ft 318 kts 342°
2026-04-14 09:08 -38.34330 176.29948 26691 ft 318 kts 342°
2026-04-14 09:08 -38.32350 176.28738 26692 ft 318 kts 342°
2026-04-14 09:09 -38.30348 176.27516 26692 ft 318 kts 342°
2026-04-14 09:09 -38.28362 176.26305 26691 ft 317 kts 342°
2026-04-14 09:09 -38.26377 176.25093 26691 ft 317 kts 342°
2026-04-14 09:09 -38.24386 176.23880 26691 ft 317 kts 342°
2026-04-14 09:10 -38.22398 176.22669 26691 ft 317 kts 342°
2026-04-14 09:10 -38.20405 176.21457 26691 ft 317 kts 342°
2026-04-14 09:10 -38.18409 176.20241 26691 ft 317 kts 342°
2026-04-14 09:10 -38.16423 176.19032 26691 ft 317 kts 342°
2026-04-14 09:11 -38.14422 176.17816 26691 ft 317 kts 342°
2026-04-14 09:11 -38.12445 176.16615 26691 ft 317 kts 342°
2026-04-14 09:11 -38.10463 176.15411 26691 ft 317 kts 342°
2026-04-14 09:11 -38.08462 176.14200 26689 ft 317 kts 342°
2026-04-14 09:12 -38.06492 176.13008 26689 ft 316 kts 342°
2026-04-14 09:12 -38.04490 176.11798 26688 ft 316 kts 342°
2026-04-14 09:12 -38.02507 176.10599 26689 ft 316 kts 342°
2026-04-14 09:12 -38.00521 176.09398 26688 ft 316 kts 342°
2026-04-14 09:13 -37.98556 176.08211 26688 ft 316 kts 342°
2026-04-14 09:13 -37.96565 176.07010 26688 ft 316 kts 342°
2026-04-14 09:13 -37.94589 176.05817 26688 ft 316 kts 342°
2026-04-14 09:13 -37.92594 176.04613 26688 ft 316 kts 342°
2026-04-14 09:14 -37.90604 176.03415 26687 ft 316 kts 342°
2026-04-14 09:14 -37.88620 176.02219 26696 ft 316 kts 342°
2026-04-14 09:14 -37.86650 176.01030 26697 ft 316 kts 342°
2026-04-14 09:14 -37.84641 175.99821 26699 ft 316 kts 342°
2026-04-14 09:15 -37.82654 175.98624 26699 ft 317 kts 342°
2026-04-14 09:15 -37.80664 175.97426 26699 ft 317 kts 342°
2026-04-14 09:15 -37.78667 175.96223 26698 ft 317 kts 342°
2026-04-14 09:15 -37.76677 175.95024 26699 ft 318 kts 342°
2026-04-14 09:16 -37.74661 175.93813 26524 ft 324 kts 342°
2026-04-14 09:16 -37.72596 175.92580 25871 ft 333 kts 342°
2026-04-14 09:16 -37.70516 175.91333 25239 ft 333 kts 342°
2026-04-14 09:16 -37.68434 175.90091 24606 ft 329 kts 343°
2026-04-14 09:17 -37.66401 175.88869 24187 ft 320 kts 342°
2026-04-14 09:17 -37.64406 175.87672 23921 ft 320 kts 342°
2026-04-14 09:17 -37.62360 175.86455 23421 ft 322 kts 342°
2026-04-14 09:17 -37.60369 175.85268 23049 ft 317 kts 342°
2026-04-14 09:18 -37.58381 175.84079 22770 ft 311 kts 342°
2026-04-14 09:18 -37.56416 175.82910 22396 ft 317 kts 342°
2026-04-14 09:18 -37.54436 175.81735 21931 ft 315 kts 342°
2026-04-14 09:18 -37.52454 175.80556 21539 ft 312 kts 341°
2026-04-14 09:19 -37.50496 175.79391 21175 ft 310 kts 341°
2026-04-14 09:19 -37.48566 175.78242 20818 ft 308 kts 341°
2026-04-14 09:19 -37.46638 175.77095 20435 ft 308 kts 341°
2026-04-14 09:19 -37.44697 175.75896 19961 ft 314 kts 334°
2026-04-14 09:20 -37.43070 175.73991 19341 ft 326 kts 315°
2026-04-14 09:20 -37.41604 175.71866 18762 ft 322 kts 315°
2026-04-14 09:20 -37.40150 175.69753 18221 ft 316 kts 315°
2026-04-14 09:20 -37.38731 175.67683 17883 ft 310 kts 314°
2026-04-14 09:21 -37.37318 175.65631 17416 ft 315 kts 314°
2026-04-14 09:21 -37.35857 175.63519 16838 ft 321 kts 314°
2026-04-14 09:21 -37.34403 175.61418 16328 ft 316 kts 313°
2026-04-14 09:21 -37.32996 175.59383 15954 ft 308 kts 313°
2026-04-14 09:22 -37.31599 175.57358 15670 ft 300 kts 313°
2026-04-14 09:22 -37.30266 175.55426 15457 ft 291 kts 313°
2026-04-14 09:22 -37.28910 175.53467 15095 ft 298 kts 313°
2026-04-14 09:22 -37.27568 175.51533 14731 ft 293 kts 313°
2026-04-14 09:23 -37.26217 175.49589 14343 ft 294 kts 313°
2026-04-14 09:23 -37.24873 175.47661 13922 ft 294 kts 312°
2026-04-14 09:23 -37.23537 175.45741 13537 ft 292 kts 312°
2026-04-14 09:23 -37.22196 175.43817 13097 ft 291 kts 312°
2026-04-14 09:24 -37.20879 175.41927 12644 ft 289 kts 311°
2026-04-14 09:24 -37.19561 175.40037 12179 ft 287 kts 311°
2026-04-14 09:24 -37.18262 175.38176 11712 ft 286 kts 311°
2026-04-14 09:24 -37.16971 175.36304 11240 ft 284 kts 311°
2026-04-14 09:25 -37.15691 175.34444 10767 ft 283 kts 312°
2026-04-14 09:25 -37.14411 175.32594 10293 ft 280 kts 313°
2026-04-14 09:25 -37.13134 175.30762 9818 ft 276 kts 313°
2026-04-14 09:25 -37.11883 175.28970 9354 ft 273 kts 314°
2026-04-14 09:26 -37.10634 175.27191 8892 ft 270 kts 314°
2026-04-14 09:26 -37.09395 175.25427 8435 ft 268 kts 314°
2026-04-14 09:26 -37.08175 175.23691 7984 ft 266 kts 314°
2026-04-14 09:26 -37.06956 175.21959 7534 ft 264 kts 314°
2026-04-14 09:27 -37.05766 175.20265 7095 ft 261 kts 314°
2026-04-14 09:27 -37.04562 175.18574 6651 ft 259 kts 315°
2026-04-14 09:27 -37.03366 175.16896 6272 ft 254 kts 315°
2026-04-14 09:27 -37.02218 175.15288 5919 ft 250 kts 315°
2026-04-14 09:28 -37.01053 175.13640 5440 ft 253 kts 313°
2026-04-14 09:28 -36.99913 175.11981 4934 ft 253 kts 314°
2026-04-14 09:28 -36.98777 175.10359 4436 ft 228 kts 314°
2026-04-14 09:28 -36.97757 175.08903 4055 ft 224 kts 314°
2026-04-14 09:29 -36.96762 175.07466 3672 ft 217 kts 312°
2026-04-14 09:29 -36.95764 175.06074 3292 ft 222 kts 314°
2026-04-14 09:29 -36.94780 175.04559 3013 ft 224 kts 301°
2026-04-14 09:29 -36.94562 175.02739 2979 ft 192 kts 260°
2026-04-14 09:30 -36.94943 175.01245 3083 ft 181 kts 254°
2026-04-14 09:30 -36.95342 174.99750 3034 ft 181 kts 254°
2026-04-14 09:30 -36.95756 174.98259 2944 ft 179 kts 253°
2026-04-14 09:30 -36.96165 174.96774 2721 ft 183 kts 253°
2026-04-14 09:31 -36.96566 174.95340 2484 ft 167 kts 253°
2026-04-14 09:31 -36.96945 174.93976 2262 ft 165 kts 253°
2026-04-14 09:31 -36.97305 174.92686 2057 ft 164 kts 253°
2026-04-14 09:31 -36.97682 174.91328 1836 ft 158 kts 254°
2026-04-14 09:32 -36.98042 174.90033 1620 ft 155 kts 254°
2026-04-14 09:32 -36.98375 174.88840 1444 ft 135 kts 254°
2026-04-14 09:32 -36.98967 174.86706 1076 ft 126 kts 254°
2026-04-14 09:33 -36.99235 174.85741 902 ft 113 kts 255°
2026-04-14 09:33 -36.99491 174.84819 753 ft 111 kts 254°
2026-04-14 09:33 -36.99742 174.83903 614 ft 113 kts 255°
2026-04-14 09:33 -36.99997 174.82965 466 ft 112 kts 256°
2026-04-14 09:34 -37.00246 174.82071 323 ft 107 kts 254°
2026-04-14 09:34 -37.00490 174.81184 175 ft 105 kts 254°
2026-04-14 09:34 -37.00726 174.80347 48 ft 101 kts 255°
2026-04-14 09:34 -37.00899 174.79652 28 ft 38 kts 260°
2026-04-14 09:35 -37.00892 174.79408 26 ft 19 kts 275°
2026-04-14 09:35 -37.00879 174.79308 27 ft 5 kts 283°
2026-04-14 09:35 -37.00869 174.79230 27 ft 8 kts 274°
2026-04-14 09:35 -37.00852 174.79210 27 ft 7 kts 59°
2026-04-14 09:36 -37.00823 174.79292 28 ft 19 kts 70°
2026-04-14 09:36 -37.00777 174.79460 28 ft 23 kts 70°
2026-04-14 09:36 -37.00725 174.79648 29 ft 19 kts 70°
2026-04-14 09:36 -37.00689 174.79779 31 ft 0 kts 71°
2026-04-14 09:37 -37.00675 174.79829 31 ft 11 kts 71°
2026-04-14 09:37 -37.00635 174.79971 31 ft 20 kts 70°
2026-04-14 09:37 -37.00590 174.80130 32 ft 22 kts 71°
2026-04-14 09:37 -37.00546 174.80295 31 ft 16 kts 71°
2026-04-14 09:38 -37.00486 174.80366 30 ft 13 kts 347°
2026-04-14 09:38 -37.00469 174.80360 30 ft 6 kts 346°
2026-04-14 09:38 -37.00398 174.80421 30 ft 19 kts 46°
2026-04-14 09:38 -37.00287 174.80425 28 ft 14 kts 340°
2026-04-14 09:39 -37.00251 174.80357 30 ft 8 kts 292°
2026-04-14 09:39 -37.00255 174.80341 31 ft 0 kts 71°